Location: Champs
(48.8539°N, 2.6040°E)
Time: 23:21:58
(UTC+00:00)

Cosmos 1953 - Pass Details

Date: 31 May 2022
Orbit: 533 x 555 km, 82.5° (Epoch: 01 July)

Event Time Altitude Azimuth Distance (km) Brightness Sun altitude
Rises 00:50:35 0° 336° (NNW) 2,722 6.7 -17.9°
Reaches altitude 10° 00:53:13 10° 319° (NW) 1,818 5.4 -17.7°
Maximum altitude 00:56:03 19° 274° (W) 1,333 4.1 -17.6°
Enters shadow 00:56:49 18° 258° (WSW) 1,372 4.1 -17.6°
